This is the latest recevied weather packets stored in our database for station/object HK6RM-17. If no packets are shown the sender has not sent any weather packets the latest 10 day(s).
| Time | Temp. | Humidity | Pressure | Rain* | Wind** | Luminosity | Snow |
|---|---|---|---|---|---|---|---|
| 1777832458 | 20° C | 74% | 1014 hPa | 0 mm | - | - | - |
| 1777831857 | 20° C | 74% | 1014 hPa | 0 mm | - | - | - |
| 1777831255 | 20° C | 76% | 1014 hPa | 0 mm | - | - | - |
| 1777830655 | 20° C | 77% | 1014 hPa | 0 mm | - | - | - |
| 1777830053 | 18.89° C | 79% | 1014 hPa | 0 mm | - | - | - |
| 1777829452 | 18.89° C | 79% | 1014 hPa | 0 mm | - | - | - |
| 1777828850 | 19.44° C | 79% | 1015 hPa | 0 mm | - | - | - |
| 1777828248 | 20° C | 79% | 1015 hPa | 0 mm | - | - | - |
| 1777827647 | 20.56° C | 79% | 1015 hPa | 0 mm | - | - | - |
| 1777827047 | 17.78° C | 82% | 1015 hPa | 0 mm | - | - | - |
| 1777826446 | 18.33° C | 82% | 1016 hPa | 0 mm | - | - | - |
| 1777825844 | 18.33° C | 82% | 1016 hPa | 0 mm | - | - | - |
| 1777825242 | 18.89° C | 82% | 1016 hPa | 0 mm | - | - | - |
| 1777824641 | 18.89° C | 82% | 1016 hPa | 0 mm | - | - | - |
| 1777824039 | 19.44° C | 82% | 1016 hPa | 0 mm | - | - | - |
| 1777823438 | 19.44° C | 82% | 1016 hPa | 0 mm | - | - | - |
| 1777822838 | 20° C | 82% | 1016 hPa | 0 mm | - | - | - |
| 1777822237 | 16.67° C | 79% | 1016 hPa | 0 mm | - | - | - |
| 1777821636 | 17.22° C | 78% | 1017 hPa | 0 mm | - | - | - |
| 1777821035 | 17.22° C | 78% | 1017 hPa | 0 mm | - | - | - |
| 1777820434 | 17.22° C | 78% | 1017 hPa | 0 mm | - | - | - |
| 1777819834 | 17.22° C | 78% | 1017 hPa | 0 mm | - | - | - |
| 1777819232 | 17.22° C | 78% | 1017 hPa | 0 mm | - | - | - |
| 1777818631 | 17.22° C | 78% | 1017 hPa | 0 mm | - | - | - |
| 1777818031 | 17.22° C | 77% | 1017 hPa | 0 mm | - | - | - |
* Rain latest hour (hover to see other rain measurements)
** Current wind speed in m/s (hover to see current wind gust speed)